Location: Kalberh�ni
(46.4610°N, 7.2453°E)
Time: 20:22:26
(UTC+00:00)

USA 229 - Pass Details

Date: 23 October 2021
Orbit: 946 x 1266 km, 63.4° (Epoch: 25 November)

Event Time Altitude Azimuth Distance (km) Brightness Sun altitude
Exits shadow 02:34:29 63° 121° (ESE) 1,338 4.1 -35.4°
Drops below altitude 10° 02:40:54 10° 138° (SE) 3,213 6.4 -34.4°
Sets 02:43:44 0° 139° (SE) 4,196 7.0 -34.0°
